[[{"header":{"parameterUnit":"m.s-1","parameterCategory":1,"la1":30.2991,"la2":30.254,"lo1":-89.0895,"lo2":-89.0444,"dy":0.0017,"dx":0.0017,"nx":28,"ny":28,"refTime":"2024-03-02T03:00:00:Z","depth":0,"parameterNumber":2,"parameterNumberName":"U-component_of_WINDS"},"data":[0,0,0,0,0,0,0,0,0,0,0,0,0,0,0,0,0,0,0,0,0,0,0,0,0,0,0,0,0,0,0,0,0,0,0,0,0,0,0,0,0,0,0,0,0,0,0,0,0,0,0,0,0,0,0,0,0,0,-3.5735,-3.5735,0,-3.5734,-3.5734,-3.5734,-3.5668,-3.5667,-3.5665,-3.5663,-3.5663,-3.5664,-3.5666,0,0,0,0,0,0,0,0,0,0,0,0,0,-3.5682,-3.5684,-3.5735,-3.5735,-3.5735,-3.5734,-3.5734,-3.5734,-3.5669,-3.5666,-3.5664,-3.5662,-3.5662,-3.5664,-3.5666,0,0,0,0,0,0,0,0,0,0,0,0,0,-3.5696,-3.5684,-3.5735,-3.5702,-3.5699,-3.5734,-3.5734,-3.5734,-3.5669,-3.5666,-3.5664,-3.5661,-3.5662,-3.5664,-3.5666,-3.5733,0,0,-3.5674,-3.5675,0,0,0,0,0,0,0,0,-3.5695,-3.5698,-3.5707,-3.5704,-3.5701,-3.5699,-3.5715,-3.5734,-3.567,-3.568,-3.5663,-3.566,-3.5677,-3.5678,-3.5683,-3.5733,-3.5733,-3.5674,-3.5675,-3.5676,-3.5677,0,0,0,0,0,0,0,-3.5694,-3.5698,-3.5735,-3.5707,-3.5704,-3.5688,-3.5687,-3.5719,-3.5693,-3.5679,-3.5675,-3.5675,-3.5675,-3.5681,-3.5683,-3.5733,-3.5674,-3.5676,-3.5677,-3.5678,-3.584,-3.5843,0,0,0,0,0,0,-3.5698,-3.5697,-3.5735,-3.5735,-3.5692,-3.5691,-3.569,-3.5702,-3.5693,-3.5689,-3.5678,-3.5672,-3.5678,-3.568,-3.5683,-3.5761,-3.5676,-3.5679,-3.568,-3.5837,-3.584,-3.5844,0,0,0,0,0,0,-3.5697,-3.5702,-3.5735,-3.5715,-3.5718,-3.5695,-3.5709,-3.5703,-3.571,-3.5691,-3.5687,-3.5689,-3.5676,-3.5679,-3.5721,-3.576,-3.568,-3.5682,-3.5834,-3.5838,-3.5842,-3.5918,0,0,0,0,0,0,-3.5696,-3.5702,-3.5726,-3.5716,-3.5719,-3.5773,-3.5711,-3.5705,-3.5714,-3.5707,-3.57,-3.5697,-3.5675,-3.5718,-3.5724,-3.5762,-3.5684,-3.583,-3.5836,-3.5841,-3.5912,-3.5924,-3.5935,0,0,0,0,0,-3.5694,-3.5747,-3.5727,-3.5732,-3.5748,-3.5775,-3.5777,-3.575,-3.5717,-3.5742,-3.5731,-3.5697,-3.5756,-3.5723,-3.5729,-3.5768,-3.5827,-3.5834,-3.584,-3.5907,-3.5922,-3.5935,0,0,0,0,0,0,-3.5761,-3.5744,-3.5723,-3.5774,-3.5777,-3.5764,-3.5794,-3.5767,-3.5779,-3.5772,-3.5738,-3.5738,-3.5786,-3.5781,-3.5745,-3.5834,-3.5786,-3.5794,-3.5834,-3.5849,-3.586,-3.586,-3.5686,0,0,0,0,0,-3.5782,-3.5804,-3.5789,-3.5835,-3.5838,-3.5816,-3.5827,-3.5806,-3.5808,-3.5808,-3.58,-3.5803,-3.5822,-3.5835,-3.5852,-3.5912,-3.591,-3.5942,-3.5954,-3.5963,-3.597,-3.6004,-3.6018,-3.5865,-3.5865,-3.5864,0,0,-3.5824,-3.5819,-3.5834,-3.5849,-3.5848,-3.5873,-3.5817,-3.5845,-3.5864,-3.5812,-3.5852,-3.5847,-3.5848,-3.59,-3.5922,-3.5898,-3.6013,-3.5971,-3.5979,-3.5981,-3.6012,-3.6027,-3.604,-3.5869,-3.5868,-3.5867,0,0,-3.5915,-3.5913,-3.5952,-3.5954,-3.5954,-3.594,-3.595,-3.5942,-3.5937,-3.5976,-3.5939,-3.5962,-3.5995,-3.5998,-3.6004,-3.6101,-3.6071,-3.6107,-3.6167,-3.62,-3.6213,-3.6223,-3.6259,-3.6272,-3.6115,-3.6115,-3.6115,0,-3.5968,-3.6004,-3.5976,-3.6007,-3.6016,-3.5972,-3.6012,-3.6015,-3.6021,-3.6029,-3.6001,-3.6044,-3.6042,-3.6095,-3.6119,-3.6125,-3.6137,-3.6107,-3.6213,-3.6223,-3.6233,-3.6266,-3.628,-3.6119,-3.6119,-3.6118,-3.6118,0,-3.607,-3.6095,-3.6127,-3.6136,-3.6148,-3.6184,-3.6162,-3.6178,-3.6158,-3.6147,-3.619,-3.6186,-3.6202,-3.6214,-3.6193,-3.6265,-3.625,-3.6219,-3.6169,-3.6252,-3.6284,-3.6296,-3.6126,-3.6124,-3.6123,-3.6122,0,0,-3.6199,-3.6194,-3.6206,-3.6211,-3.621,-3.623,-3.6266,-3.6282,-3.6297,-3.6304,-3.6333,-3.6365,-3.6337,-3.6344,-3.6324,-3.6354,-3.6433,-3.6319,-3.6318,-3.634,-3.6513,-3.6536,-3.6552,-3.6413,-3.6416,-3.6418,-3.6513,0,-3.6287,-3.6347,-3.6324,-3.6386,-3.641,-3.6371,-3.6402,-3.6406,-3.6399,-3.6419,-3.641,-3.6433,-3.6394,-3.6398,-3.6426,-3.6417,-3.6467,-3.641,-3.6441,-3.6443,-3.6441,-3.6568,-3.6592,-3.6682,-3.6525,-3.6527,-3.6528,0,-3.6397,-3.641,-3.6474,-3.6473,-3.6482,-3.651,-3.6525,-3.6545,-3.655,-3.6542,-3.6553,-3.6528,-3.6564,-3.6517,-3.6567,-3.6529,-3.6541,-3.6539,-3.6542,-3.6543,-3.649,-3.6572,-3.671,-3.6723,-3.6547,-3.6546,-3.6544,0,-3.6486,-3.652,-3.6563,-3.6568,-3.6567,-3.6588,-3.6589,-3.6591,-3.6604,-3.6617,-3.6625,-3.6643,-3.6653,-3.6668,-3.6649,-3.6616,-3.6703,-3.6653,-3.6698,-3.6699,-3.6717,-3.6716,-3.6858,-3.6726,-3.6725,-3.6725,-3.6725,0,-3.6586,-3.6627,-3.6603,-3.663,-3.6676,-3.6651,-3.6697,-3.6694,-3.6697,-3.6723,-3.6691,-3.6716,-3.669,-3.6714,-3.67,-3.6745,-3.675,-3.6745,-3.6741,-3.6748,-3.6748,-3.6754,-3.6747,-3.6729,-3.6728,-3.6727,-3.6727,0,-3.6692,-3.6678,-3.6723,-3.6719,-3.672,-3.6754,-3.6751,-3.6776,-3.6767,-3.6801,-3.6808,-3.6794,-3.6821,-3.6804,-3.6831,-3.6822,-3.688,-3.6868,-3.6879,-3.6875,-3.6921,-3.6917,-3.7072,-3.7091,-3.6947,-3.6948,-3.6949,0,-3.6757,-3.6788,-3.6789,-3.6804,-3.6807,-3.6833,-3.6846,-3.6824,-3.6839,-3.685,-3.6874,-3.6899,-3.6916,-3.6961,-3.6954,-3.6975,-3.6962,-3.7015,-3.6965,-3.6972,-3.6964,-3.6962,-3.6965,-3.7025,-3.7027,-3.7028,-3.7029,0,-3.6873,-3.6865,-3.6885,-3.6905,-3.6922,-3.6936,-3.6947,-3.6962,-3.694,-3.696,-3.6987,-3.7001,-3.703,-3.7055,-3.7073,-3.7075,-3.7049,-3.7046,-3.7057,-3.7064,-3.7069,-3.7068,-3.6906,-3.7041,-3.704,-3.7039,-3.7039,-3.7038,-3.696,-3.6987,-3.6992,-3.7017,-3.7024,-3.7036,-3.706,-3.7056,-3.7078,-3.71,-3.7087,-3.7119,-3.7127,-3.7149,-3.7155,-3.7181,-3.716,-3.7176,-3.718,-3.7185,-3.7191,-3.7066,-3.7184,-3.7184,-3.7184,-3.7183,-3.7183,0,-3.7075,-3.7078,-3.7101,-3.7119,-3.7139,-3.7114,-3.7127,-3.7145,-3.7174,-3.7184,-3.7203,-3.7236,-3.7261,-3.7258,-3.7281,-3.7302,-3.7292,-3.7309,-3.7307,-3.7308,-3.7209,-3.7196,-3.7318,-3.7318,-3.7318,-3.7318,-3.7318,-3.7318,-3.7137,-3.7181,-3.7175,-3.7224,-3.7226,-3.7259,-3.7268,-3.728,-3.7287,-3.7326,-3.7347,-3.7345,-3.735,-3.7374,-3.7396,-3.7395,-3.7405,-3.7427,-3.7421,-3.7328,-3.7315,-3.7302,-3.729,-3.743,-3.743,-3.7519,-3.7519,-3.752]},{"header":{"parameterUnit":"m.s-1","parameterCategory":1,"la1":30.2991,"la2":30.254,"lo1":-89.0895,"lo2":-89.0444,"dy":0.0017,"dx":0.0017,"nx":28,"ny":28,"refTime":"2024-03-02T03:00:00:Z","depth":0,"parameterNumber":3,"parameterNumberName":"V-component_of_WINDS"},"data":[0,0,0,0,0,0,0,0,0,0,0,0,0,0,0,0,0,0,0,0,0,0,0,0,0,0,0,0,0,0,0,0,0,0,0,0,0,0,0,0,0,0,0,0,0,0,0,0,0,0,0,0,0,0,0,0,0,0,0.5388,0.5388,0,0.5372,0.5372,0.5372,0.54,0.5401,0.5402,0.5403,0.5384,0.5383,0.5381,0,0,0,0,0,0,0,0,0,0,0,0,0,0.5442,0.5441,0.5388,0.5388,0.5388,0.5372,0.5372,0.5372,0.54,0.5401,0.5403,0.5404,0.5385,0.5383,0.5381,0,0,0,0,0,0,0,0,0,0,0,0,0,0.5422,0.5441,0.5388,0.54,0.5401,0.5373,0.5372,0.5372,0.54,0.5401,0.5403,0.5404,0.5385,0.5383,0.5381,0.5339,0,0,0.5375,0.5374,0,0,0,0,0,0,0,0,0.5423,0.542,0.5399,0.5399,0.54,0.539,0.5384,0.5361,0.54,0.54,0.5403,0.5405,0.5385,0.5383,0.5376,0.5338,0.5337,0.5374,0.5373,0.5372,0.5372,0,0,0,0,0,0,0,0.5424,0.542,0.5382,0.5398,0.5399,0.5406,0.5405,0.538,0.5385,0.54,0.5402,0.54,0.5385,0.5378,0.5376,0.5337,0.5374,0.5373,0.5371,0.537,0.5266,0.5264,0,0,0,0,0,0,0.5424,0.5421,0.5383,0.5382,0.5415,0.5404,0.5402,0.5392,0.5385,0.5385,0.5399,0.5402,0.5381,0.5379,0.5376,0.5328,0.5372,0.537,0.5369,0.5267,0.5266,0.5264,0,0,0,0,0,0,0.5425,0.5421,0.5383,0.5402,0.5398,0.5401,0.5389,0.5391,0.5384,0.5384,0.5385,0.5391,0.5382,0.5379,0.5349,0.5327,0.5369,0.5367,0.5269,0.5267,0.5265,0.523,0,0,0,0,0,0,0.5427,0.5421,0.5405,0.5402,0.5397,0.5357,0.5388,0.5389,0.538,0.5384,0.5377,0.5377,0.5383,0.5352,0.5347,0.5325,0.5366,0.5271,0.5268,0.5265,0.5233,0.5227,0.5222,0,0,0,0,0,0.5429,0.5395,0.5404,0.5399,0.5377,0.5355,0.5352,0.5361,0.5379,0.5363,0.5363,0.5377,0.5331,0.5348,0.5343,0.532,0.5272,0.5269,0.5266,0.5236,0.5228,0.5222,0,0,0,0,0,0,0.5394,0.5394,0.5405,0.5369,0.5362,0.536,0.534,0.5352,0.534,0.5343,0.5354,0.5352,0.532,0.5317,0.5337,0.5281,0.5304,0.53,0.5283,0.5276,0.5271,0.5272,0.5364,0,0,0,0,0,0.5383,0.5365,0.5366,0.5335,0.5331,0.5336,0.5327,0.5335,0.5327,0.5324,0.5322,0.5314,0.5298,0.5287,0.5272,0.5233,0.5232,0.5215,0.5209,0.5205,0.52,0.5181,0.5174,0.5253,0.5253,0.5253,0,0,0.5358,0.5356,0.5344,0.5328,0.5323,0.5305,0.5333,0.5312,0.5299,0.5321,0.5293,0.5292,0.5283,0.5249,0.5234,0.5246,0.5178,0.52,0.5196,0.5195,0.5177,0.5169,0.5163,0.525,0.5251,0.5251,0,0,0.5304,0.5301,0.5275,0.527,0.5264,0.5268,0.5262,0.5259,0.5259,0.5232,0.5248,0.5232,0.5204,0.5198,0.5191,0.5137,0.515,0.5132,0.5102,0.5083,0.5077,0.5071,0.5053,0.5046,0.5128,0.5128,0.5128,0,0.5274,0.5248,0.526,0.5238,0.5231,0.5252,0.5226,0.522,0.5209,0.5203,0.5217,0.5183,0.5179,0.5144,0.5132,0.5125,0.5119,0.5133,0.5077,0.5071,0.5066,0.5049,0.5042,0.5126,0.5126,0.5126,0.5126,0,0.5212,0.5194,0.5174,0.5164,0.5154,0.513,0.5139,0.5127,0.5136,0.5139,0.5112,0.5108,0.5093,0.5085,0.5093,0.5052,0.506,0.5075,0.5099,0.5056,0.504,0.5034,0.5123,0.5124,0.5124,0.5125,0,0,0.5134,0.5133,0.5126,0.5122,0.5118,0.5104,0.5082,0.5069,0.5059,0.5051,0.5033,0.5009,0.5024,0.5016,0.5024,0.5007,0.4966,0.5024,0.5024,0.5014,0.4923,0.4912,0.4904,0.4975,0.4974,0.4973,0.4924,0,0.5082,0.5045,0.5055,0.5018,0.5002,0.5022,0.5003,0.4998,0.5001,0.4987,0.4989,0.4973,0.4993,0.4989,0.4973,0.4975,0.4948,0.4978,0.4958,0.4957,0.496,0.4895,0.4883,0.4837,0.4917,0.4916,0.4915,0,0.5015,0.5006,0.4968,0.4968,0.4961,0.4944,0.4934,0.4921,0.4916,0.4919,0.4912,0.4923,0.4902,0.4926,0.4897,0.4917,0.491,0.4909,0.4908,0.4906,0.4934,0.4892,0.4822,0.4815,0.4905,0.4906,0.4907,0,0.4963,0.4942,0.4916,0.4913,0.4912,0.49,0.4899,0.4896,0.4888,0.4879,0.4874,0.4862,0.4855,0.4846,0.4854,0.4871,0.4824,0.4849,0.4825,0.4825,0.4814,0.4815,0.4742,0.4809,0.4809,0.4809,0.4809,0,0.4903,0.4879,0.4894,0.4878,0.4852,0.4865,0.4838,0.4839,0.4837,0.4822,0.4838,0.4824,0.4835,0.4821,0.4827,0.4803,0.4799,0.4801,0.4803,0.48,0.48,0.4795,0.4799,0.4807,0.4808,0.4808,0.4808,0,0.4841,0.485,0.4823,0.4826,0.4826,0.4807,0.4809,0.4794,0.4799,0.478,0.4776,0.4782,0.4767,0.4775,0.4759,0.4763,0.4731,0.4737,0.4733,0.4735,0.4712,0.4714,0.4633,0.4624,0.4697,0.4696,0.4695,0,0.4802,0.4784,0.4786,0.4778,0.4776,0.4762,0.4755,0.4767,0.4759,0.4754,0.474,0.4727,0.4717,0.4692,0.4695,0.4684,0.469,0.4662,0.4688,0.4686,0.469,0.4691,0.469,0.4657,0.4656,0.4656,0.4655,0,0.4733,0.4739,0.4728,0.472,0.4711,0.4704,0.4699,0.4691,0.4704,0.4694,0.468,0.4672,0.4657,0.4644,0.4634,0.4633,0.4646,0.4647,0.4641,0.4638,0.4636,0.4638,0.472,0.4649,0.4649,0.465,0.465,0.465,0.4681,0.4667,0.4667,0.4655,0.4653,0.4648,0.4635,0.4639,0.4628,0.4618,0.4626,0.4609,0.4606,0.4595,0.4592,0.4579,0.459,0.4581,0.4579,0.4577,0.4574,0.4639,0.4577,0.4577,0.4577,0.4578,0.4578,0,0.4614,0.4615,0.4604,0.4597,0.4588,0.4603,0.4599,0.459,0.4576,0.4572,0.4563,0.4548,0.4536,0.4539,0.4528,0.4517,0.4523,0.4514,0.4515,0.4514,0.4564,0.4571,0.4509,0.4509,0.4509,0.4509,0.4509,0.4509,0.4577,0.4555,0.4561,0.4538,0.4539,0.4524,0.452,0.4516,0.4514,0.4496,0.4487,0.449,0.4489,0.4479,0.4469,0.447,0.4465,0.4454,0.4457,0.4504,0.4511,0.4517,0.4523,0.4453,0.4453,0.4408,0.4408,0.4408]}]]